| time (UTC) | temp F | wind direction | speed knots | gust knots | rain 1hr in | rain 24hr in | rain mn in | humidity % | barometer mb |
| 20260506112950 | 57 | 33 | 3.5 | 9.6 | 0.00 | 0.00 | 0.00 | 81 | 1012.8 |
| 20260506111447 | 57 | 347 | 3.5 | 7.0 | 0.00 | 0.00 | 0.00 | 80 | 1012.4 |
| 20260506105953 | 57 | 353 | 4.3 | 9.6 | 0.00 | 0.00 | 0.00 | 79 | 1012.0 |
| 20260506104447 | 57 | 6 | 3.5 | 10.4 | 0.00 | 0.00 | 0.00 | 80 | 1012.1 |
| 20260506102949 | 58 | 18 | 3.5 | 7.8 | 0.00 | 0.00 | 0.00 | 81 | 1011.6 |
| 20260506101447 | 58 | 44 | 2.6 | 4.3 | 0.00 | 0.00 | 0.00 | 82 | 1011.3 |
| 20260506095951 | 58 | 359 | 1.7 | 5.2 | 0.00 | 0.00 | 0.00 | 82 | 1011.1 |
| 20260506094447 | 58 | 9 | 2.6 | 6.1 | 0.00 | 0.00 | 0.00 | 82 | 1010.8 |
| 20260506092950 | 58 | 60 | 3.5 | 8.7 | 0.00 | 0.00 | 0.00 | 82 | 1010.8 |
| 20260506091447 | 59 | 46 | 1.7 | 6.1 | 0.00 | 0.00 | 0.00 | 83 | 1010.6 |
| 20260506085952 | 59 | 49 | 4.3 | 7.8 | 0.00 | 0.00 | 0.00 | 83 | 1010.8 |
| 20260506084447 | 59 | 49 | 3.5 | 7.0 | 0.00 | 0.00 | 0.00 | 83 | 1010.8 |
| 20260506082949 | 59 | 58 | 3.5 | 7.0 | 0.00 | 0.00 | 0.00 | 84 | 1010.5 |
| 20260506081447 | 60 | 25 | 2.6 | 6.1 | 0.00 | 0.00 | 0.00 | 83 | 1010.4 |
| 20260506072950 | 60 | 358 | 2.6 | 6.1 | 0.00 | 0.00 | 0.00 | 83 | 1010.2 |
| 20260506071447 | 60 | 49 | 0.0 | 6.1 | 0.00 | 0.00 | 0.00 | 84 | 1010.1 |
| 20260506061447 | 61 | 39 | 2.6 | 8.7 | 0.00 | 0.00 | 0.00 | 81 | 1009.9 |
| 20260506044447 | 64 | 4 | 2.6 | 7.8 | 0.00 | 0.00 | 0.00 | 77 | 1009.9 |
| 20260506042951 | 65 | 7 | 2.6 | 6.1 | 0.00 | 0.00 | 0.00 | 76 | 1009.8 |
| 20260506041447 | 66 | 30 | 4.3 | 7.8 | 0.00 | 0.00 | 0.00 | 75 | 1009.8 |
| 20260506035952 | 66 | 7 | 4.3 | 8.7 | 0.00 | 0.00 | 0.00 | 75 | 1009.9 |
| 20260506034447 | 66 | 3 | 4.3 | 8.7 | 0.00 | 0.00 | 0.00 | 74 | 1009.9 |
| 20260506032950 | 67 | 34 | 5.2 | 11.3 | 0.00 | 0.00 | 0.00 | 73 | 1009.5 |
| 20260506031447 | 67 | 25 | 4.3 | 8.7 | 0.00 | 0.00 | 0.00 | 73 | 1008.9 |
| 20260506025953 | 68 | 47 | 5.2 | 10.4 | 0.00 | 0.00 | 0.00 | 72 | 1008.4 |
| 20260506024447 | 69 | 46 | 3.5 | 7.8 | 0.00 | 0.00 | 0.00 | 72 | 1008.1 |
| 20260506022950 | 70 | 85 | 4.3 | 9.6 | 0.00 | 0.00 | 0.00 | 72 | 1007.7 |
| 20260506021448 | 71 | 40 | 6.1 | 10.4 | 0.00 | 0.00 | 0.00 | 71 | 1007.3 |
| 20260506015952 | 71 | 58 | 5.2 | 8.7 | 0.00 | 0.00 | 0.00 | 70 | 1007.3 |
| 20260506014447 | 71 | 16 | 4.3 | 9.6 | 0.00 | 0.00 | 0.00 | 70 | 1006.9 |
| 20260506011448 | 73 | 16 | 2.6 | 6.1 | 0.00 | 0.00 | 0.00 | 68 | 1006.2 |
| 20260506002950 | 76 | 68 | 6.1 | 10.4 | 0.00 | 0.00 | 0.00 | 65 | 1005.4 |
| 20260506001447 | 77 | 46 | 6.1 | 10.4 | 0.00 | 0.00 | 0.00 | 63 | 1005.4 |
| 20260505235952 | 79 | 41 | 6.1 | 10.4 | 0.00 | 0.00 | 0.00 | 61 | 1005.3 |
| 20260505234447 | 83 | 65 | 5.2 | 11.3 | 0.00 | 0.00 | 0.00 | 60 | 1004.9 |
| 20260505225955 | 93 | 295 | 0.9 | 5.2 | 0.00 | 0.00 | 0.00 | 45 | 1003.8 |
| 20260505222950 | 92 | 275 | 0.9 | 4.3 | 0.00 | 0.00 | 0.00 | 46 | 1003.8 |
| 20260505221448 | 93 | 281 | 1.7 | 7.0 | 0.00 | 0.00 | 0.00 | 42 | 1003.8 |
| 20260505215952 | 92 | 204 | 0.0 | 5.2 | 0.00 | 0.00 | 0.00 | 45 | 1003.7 |
| 20260505212950 | 93 | 283 | 0.0 | 3.5 | 0.00 | 0.00 | 0.00 | 43 | 1003.9 |
| 20260505211447 | 92 | 266 | 1.7 | 4.3 | 0.00 | 0.00 | 0.00 | 44 | 1004.1 |
| 20260505205953 | 91 | 252 | 1.7 | 5.2 | 0.00 | 0.00 | 0.00 | 46 | 1004.3 |
| 20260505204447 | 92 | 187 | 0.9 | 4.3 | 0.00 | 0.00 | 0.00 | 47 | 1004.6 |
| 20260505202950 | 91 | 322 | 1.7 | 9.6 | 0.00 | 0.00 | 0.00 | 50 | 1004.8 |
| 20260505201447 | 90 | 236 | 3.5 | 8.7 | 0.00 | 0.00 | 0.00 | 48 | 1004.8 |
| 20260505195953 | 90 | 307 | 2.6 | 7.8 | 0.00 | 0.00 | 0.00 | 48 | 1005.0 |
| 20260505194448 | 89 | 294 | 3.5 | 7.8 | 0.00 | 0.00 | 0.00 | 49 | 1005.2 |
| 20260505192949 | 89 | 255 | 3.5 | 7.0 | 0.00 | 0.00 | 0.00 | 51 | 1005.2 |
| 20260505185954 | 87 | 264 | 4.3 | 8.7 | 0.00 | 0.00 | 0.00 | 51 | 1005.3 |
| 20260505184447 | 87 | 262 | 5.2 | 9.6 | 0.00 | 0.00 | 0.00 | 55 | 1005.5 |
| 20260505182951 | 87 | 271 | 2.6 | 9.6 | 0.00 | 0.00 | 0.00 | 57 | 1005.8 |
| 20260505174449 | 83 | 256 | 4.3 | 9.6 | 0.00 | 0.00 | 0.00 | 65 | 1005.9 |
| 20260505172951 | 83 | 316 | 6.1 | 11.3 | 0.00 | 0.00 | 0.00 | 64 | 1006.1 |
| 20260505171448 | 83 | 189 | 2.6 | 7.0 | 0.00 | 0.00 | 0.00 | 67 | 1006.1 |
| 20260505165953 | 82 | 170 | 3.5 | 9.6 | 0.00 | 0.00 | 0.00 | 69 | 1006.1 |
| 20260505164447 | 81 | 205 | 2.6 | 8.7 | 0.00 | 0.00 | 0.00 | 68 | 1005.8 |
| 20260505162950 | 80 | 218 | 2.6 | 8.7 | 0.00 | 0.00 | 0.00 | 70 | 1005.9 |
| 20260505161448 | 80 | 208 | 3.5 | 11.3 | 0.00 | 0.00 | 0.00 | 71 | 1005.7 |
| 20260505152950 | 79 | 243 | 3.5 | 10.4 | 0.00 | 0.00 | 0.00 | 74 | 1005.8 |
| 20260505151448 | 79 | 318 | 2.6 | 7.0 | 0.00 | 0.00 | 0.00 | 76 | 1006.1 |
| 20260505124449 | 70 | 195 | 1.7 | 8.7 | 0.00 | 0.00 | 0.00 | 89 | 1005.9 |
| 20260505122950 | 70 | 203 | 3.5 | 8.7 | 0.00 | 0.00 | 0.00 | 89 | 1005.5 |
| 20260505121449 | 69 | 271 | 2.6 | 9.6 | 0.00 | 0.00 | 0.00 | 90 | 1005.3 |
| 20260505115953 | 69 | 149 | 2.6 | 8.7 | 0.00 | 0.00 | 0.00 | 90 | 1005.0 |